Aérodrome :
LOGIN :

S'inscrire | Disclaimer

   EN    FR    IT 

 










Légende :    VFR   VFR Marginal   IFR   IFR Intensif   IFR Très Intensif
Visi : 
Plafond : 
>= 8 km
>= 3000ft
5 à 8 km
1000 à 3000 ft
1500m à 5 km
500 à 1000 ft
800 à 1500m
200 à 500 ft
< 800m
< 200 ft
Symboles :   Orages  Brouillard  Fortes neiges  Fortes précipitations  Vent > 20 kt
SIGMETs :   Divers  Orages  Givrage  Turbulence  Onde Orograph.  Cendres Volcan.






- Altitude de l'aérodrome : 46 ft
- Code IATA : GPA


LGRX - Araxos

DERNIER METAR :
  • 020720Z 00000KT 9999 FEW025 BKN040 11/03 Q1013

METARs EXPIRÉS :
  • 020650Z 00000KT 9999 FEW025 BKN040 10/06 Q1012
  • 020620Z 00000KT 9999 FEW025 BKN040 09/06 Q1012
  • 020550Z 00000KT 9999 FEW025 BKN060 08/05 Q1012
  • 020520Z 00000KT 9999 FEW025 BKN070 07/05 Q1012
  • 020450Z 00000KT 9999 FEW020 SCT070 06/04 Q1012

TAF TAF LGRX
Valide du 02 à 06h jusqu'au 02 à 15h UTC


020500Z 0206/0215 32015KT 9999 FEW010 SCT020



MET'MAP, la Météo Aéronautique d'un coup d'oeil ! - Copyright ORBIFLY Décembre 2007 - Disclaimer

ORBIFLY MET'MAP TEAM :

Programmation & Développement : Alexandra Zaïnal
Sur une idée originale de : Baudouin d'Aumeries
Assistance à la programmation : Marc-Olivier Méhu
Soutien technique & logistique : Manuel Goepfert

Contact : metmap@orbifly.com




SOURCES & CREDITS :

   NOAA